Roanoke, VA

5:44 AM EDT on August 25, 2016 (GMT -0400)
Roanoke Regional-Woodrum

Weather History for KROA - July, 2013

Change the Weather History Date:

Monday, July 8, 2013

  Actual Average Record
Temperature  
Mean Temperature 76 °F 77 °F  
Max Temperature 85 °F 87 °F 102 °F (2012)
Min Temperature 67 °F 66 °F 50 °F (1979)
Degree Days  
Heating Degree Days 0 0  
Month to date heating degree days 0 0  
Since 1 June heating degree days 1 11  
Since 1 July heating degree days 0 0  
Cooling Degree Days 11 12  
Month to date cooling degree days 89 91  
Year to date cooling degree days 505 453  
Since 1 June cooling degree days 355 337  
Growing Degree Days 25 (Base 50)    
Moisture  
Dew Point 66 °F    
Average Humidity 72    
Maximum Humidity 93    
Minimum Humidity 51    
Precipitation  
Precipitation 0.00 in 0.14 in 3.26 in (1944)
Month to date precipitation 6.44 1.01  
Year to date precipitation 33.47 21.54  
Snow  
Snow 0.00 in - - ()
Month to date snowfall 0.0  
Since 1 June snowfall 0.0  
Since 1 July snowfall 0.0  
Snow Depth 0.00 in    
Sea Level Pressure  
Sea Level Pressure 30.15 in    
Wind  
Wind Speed 4 mph (WSW)    
Max Wind Speed 10 mph    
Max Gust Speed 21 mph    
Visibility 10 miles    
Events      
T = Trace of Precipitation, MM = Missing Value Source: NWS Daily Summary

Daily Weather History Graph

Daily Weather History Graph

Search for Another Location

Airport or City:

Trip Planner

Search our weather history database for the weather conditions in past years. The results will help you decide how hot, cold, wet, or windy it might be!

Date:

Astronomy

Jul. 08, 2013 Rise Set
Actual Time 6:06 AM EDT 8:42 PM EDT
Civil Twilight 5:36 AM EDT 9:13 PM EDT
Nautical Twilight 4:58 AM EDT 9:51 PM EDT
Astronomical Twilight 4:15 AM EDT 10:33 PM EDT
Moon 6:32 AM EDT (7/8) 8:46 PM EDT (7/8)
Length of Visible Light 15h 37m
Length of Day
14h 36m
New Moon, 0% of the Moon is Illuminated
Jul 8
New Moon
Jul 15
First Quarter
Jul 22
Full
Jul 29
Last Quarter
Aug 6
New

Hourly Weather History & Observations

Time (EDT) Temp. Heat Index Dew Point Humidity Pressure Visibility Wind Dir Wind Speed Gust Speed Precip Events Conditions
12:54 AM 70.0 °F - 66.9 °F 90% 30.15 in 10.0 mi Calm Calm - 0.00 in   Overcast
1:54 AM 69.1 °F - 66.9 °F 93% 30.15 in 10.0 mi South 4.6 mph - N/A   Overcast
2:54 AM 69.1 °F - 66.0 °F 90% 30.14 in 10.0 mi NW 3.5 mph - N/A   Partly Cloudy
3:54 AM 68.0 °F - 66.0 °F 93% 30.14 in 10.0 mi Calm Calm - N/A   Clear
4:54 AM 68.0 °F - 64.9 °F 90% 30.14 in 10.0 mi WNW 4.6 mph - N/A   Clear
5:54 AM 68.0 °F - 64.9 °F 90% 30.16 in 10.0 mi NW 5.8 mph - N/A   Partly Cloudy
6:54 AM 69.1 °F - 64.9 °F 87% 30.17 in 10.0 mi Calm Calm - N/A   Partly Cloudy
7:54 AM 71.1 °F - 66.0 °F 84% 30.18 in 10.0 mi Variable 3.5 mph - N/A   Partly Cloudy
8:54 AM 73.0 °F - 66.0 °F 79% 30.18 in 10.0 mi WSW 6.9 mph - N/A   Partly Cloudy
9:54 AM 75.9 °F - 66.9 °F 74% 30.19 in 10.0 mi SW 5.8 mph - N/A   Partly Cloudy
10:54 AM 77.0 °F - 66.0 °F 69% 30.19 in 10.0 mi WSW 4.6 mph - N/A   Mostly Cloudy
11:54 AM 81.0 °F 82.7 °F 64.9 °F 58% 30.19 in 10.0 mi WNW 4.6 mph - N/A   Mostly Cloudy
12:54 PM 81.0 °F 82.5 °F 64.0 °F 56% 30.18 in 10.0 mi West 5.8 mph - N/A   Scattered Clouds
1:54 PM 82.0 °F 83.4 °F 64.0 °F 54% 30.17 in 10.0 mi Variable 5.8 mph - N/A   Mostly Cloudy
2:54 PM 82.9 °F 84.0 °F 63.0 °F 51% 30.15 in 10.0 mi Variable 3.5 mph - N/A   Scattered Clouds
3:54 PM 84.0 °F 85.4 °F 64.0 °F 51% 30.14 in 10.0 mi South 4.6 mph - N/A   Scattered Clouds
4:54 PM 84.0 °F 86.3 °F 66.0 °F 55% 30.12 in 10.0 mi Calm Calm - N/A   Mostly Cloudy
5:54 PM 82.0 °F 84.1 °F 66.0 °F 58% 30.11 in 10.0 mi East 5.8 mph - N/A   Mostly Cloudy
6:54 PM 84.0 °F 85.8 °F 64.9 °F 53% 30.12 in 10.0 mi Calm Calm - N/A   Partly Cloudy
7:54 PM 81.0 °F 83.3 °F 66.9 °F 62% 30.12 in 10.0 mi ESE 6.9 mph - N/A   Partly Cloudy
8:54 PM 79.0 °F - 66.9 °F 66% 30.14 in 10.0 mi East 4.6 mph - N/A   Partly Cloudy
9:54 PM 77.0 °F - 69.1 °F 76% 30.16 in 7.0 mi Calm Calm - N/A   Partly Cloudy
10:54 PM 75.0 °F - 69.1 °F 82% 30.16 in 10.0 mi Calm Calm - N/A   Clear
11:54 PM 72.0 °F - 69.1 °F 91% 30.16 in 10.0 mi West 3.5 mph - N/A   Clear